Location: Courcelles
(49.2596°N, 1.7419°E)
Time: 21:15:42
(UTC+00:00)

Cosmos 2151 Rocket - Pass Details

Date: 17 November 2025
Orbit: 612 x 636 km, 82.5° (Epoch: 10 December)

Event Time Altitude Azimuth Distance (km) Brightness Sun altitude
Rises 17:35:14 0° 167° (SSE) 2,917 7.0 -13.9°
Reaches altitude 10° 17:37:34 10° 159° (SSE) 2,016 6.1 -14.3°
Maximum altitude 17:41:42 38° 91° (E) 977 4.1 -15.0°
Enters shadow 17:45:30 12° 26° (NNE) 1,900 5.7 -15.6°
